Location: Poughquag
(41.6090°N, 73.6820°W)
Time: 01:16:09
(UTC-05:00)

A-11 Canister half - Visible Passes

Search period start: 07 December 2023 00:00
Search period end: 17 December 2023 00:00
Orbit: 1525 x 1684 km, 47.3° (Epoch: 05 December)

Date Brightness Start Highest point End Pass type
(mag) Time Alt. Az. Time Alt. Az. Time Alt. Az.
07 Dec 9.1 18:17:45 10° SW 18:27:54 79° SSE 18:33:01 35° ENE visible
07 Dec 9.5 20:23:27 10° W 20:31:19 54° WNW 20:31:19 54° WNW visible
07 Dec 11.3 22:29:35 10° WNW 22:29:37 10° WNW 22:29:37 10° WNW visible
08 Dec 9.1 17:56:02 10° SW 18:06:09 76° SSE 18:12:32 27° ENE visible
08 Dec 9.3 20:01:37 10° W 20:10:51 64° NW 20:10:51 64° NW visible
08 Dec 11.1 22:07:46 10° WNW 22:09:09 15° WNW 22:09:09 15° WNW visible
09 Dec 9.2 17:34:18 10° SW 17:44:23 74° SSE 17:52:03 20° ENE visible
09 Dec 9.1 19:39:47 10° W 19:49:56 67° N 19:50:20 67° N visible
09 Dec 10.8 21:45:58 10° WNW 21:48:38 21° WNW 21:48:38 21° WNW visible
10 Dec 9.3 17:12:34 10° SW 17:22:38 71° SE 17:31:32 14° ENE visible
10 Dec 9.1 19:17:57 10° W 19:28:07 68° NNW 19:29:50 60° NE visible
10 Dec 10.5 21:24:09 10° WNW 21:28:07 27° WNW 21:28:07 27° WNW visible
11 Dec 9.3 16:50:52 10° SW 17:00:52 69° SE 17:10:56 10° ENE visible
11 Dec 9.2 18:56:08 10° W 19:06:18 69° NNW 19:09:18 50° NE visible
11 Dec 10.2 21:02:20 10° WNW 21:07:35 35° WNW 21:07:35 35° WNW visible
12 Dec 9.2 18:34:19 10° W 18:44:29 70° NNW 18:48:45 40° ENE visible
12 Dec 9.9 20:40:32 10° WNW 20:47:03 44° NW 20:47:03 44° NW visible
13 Dec 9.2 18:12:29 10° W 18:22:39 71° NNW 18:28:13 31° ENE visible
13 Dec 9.5 20:18:42 10° WNW 20:26:30 54° NW 20:26:30 54° NW visible
13 Dec 11.3 22:24:19 10° WNW 22:24:48 12° WNW 22:24:48 12° WNW visible
14 Dec 9.2 17:50:41 10° W 18:00:51 72° NNW 18:07:40 24° ENE visible
14 Dec 9.3 19:56:54 10° WNW 20:05:58 63° NNW 20:05:58 63° NNW visible
14 Dec 11.0 22:02:31 10° WNW 22:04:15 17° WNW 22:04:15 17° WNW visible
15 Dec 9.3 17:28:52 10° WSW 17:39:02 74° NNW 17:47:08 18° ENE visible
15 Dec 9.1 19:35:05 10° WNW 19:45:14 66° N 19:45:26 65° NNE visible
15 Dec 10.7 21:40:44 10° WNW 21:43:43 23° WNW 21:43:43 23° WNW visible
16 Dec 9.3 17:07:04 10° WSW 17:17:13 75° NNW 17:26:37 13° ENE visible
16 Dec 9.1 19:13:16 10° WNW 19:23:24 65° N 19:24:55 59° NE visible
16 Dec 10.4 21:18:56 10° WNW 21:23:12 30° WNW 21:23:12 30° WNW visible
